OK1PHU-5 Weather Reports


time (UTC)temp
C
wind
direction
speed
KPH
gust
KPH
rain 1hr
cm
rain 24hr
cm
rain mn
cm
humidity
%
barometer
mb
20260506165628 -17 0 0.0 0.0 0.00 0.00 0.00 99 1001.7
20260506164628 -17 0 0.0 0.0 0.00 0.00 0.00 98 1001.6
20260506162625 -17 0 0.0 0.0 0.00 0.00 0.00 95 1001.7
20260506161625 -17 0 0.0 0.0 0.00 0.00 0.00 93 1001.6
20260506160625 -17 0 0.0 0.0 0.00 0.00 0.00 90 1001.7
20260506155625 -17 0 0.0 0.0 0.00 0.00 0.00 85 1001.5
20260506154625 -17 0 0.0 0.0 0.00 0.00 0.00 76 1001.4
20260506152621 -17 0 0.0 0.0 0.00 0.00 0.00 76 1001.6
20260506151621 -17 0 0.0 0.0 0.00 0.00 0.00 77 1001.6
20260506150621 -17 0 0.0 0.0 0.00 0.00 0.00 76 1001.6
20260506145621 -17 0 0.0 0.0 0.00 0.00 0.00 75 1001.5
20260506144621 -17 0 0.0 0.0 0.00 0.00 0.00 76 1001.7
20260506143618 -17 0 0.0 0.0 0.00 0.00 0.00 75 1001.9
20260506142618 -17 0 0.0 0.0 0.00 0.00 0.00 74 1002.0
20260506141618 -17 0 0.0 0.0 0.00 0.00 0.00 73 1002.0
20260506140618 -17 0 0.0 0.0 0.00 0.00 0.00 72 1001.9
20260506135618 -17 0 0.0 0.0 0.00 0.00 0.00 72 1002.0
20260506134618 -17 0 0.0 0.0 0.00 0.00 0.00 71 1002.0
20260506132615 -17 0 0.0 0.0 0.00 0.00 0.00 72 1002.7
20260506131615 -17 0 0.0 0.0 0.00 0.00 0.00 71 1002.7
20260506130615 -17 0 0.0 0.0 0.00 0.00 0.00 68 1002.4
20260506125615 -17 0 0.0 0.0 0.00 0.00 0.00 68 1002.7
20260506124615 -17 0 0.0 0.0 0.00 0.00 0.00 68 1002.7
20260506123612 -17 0 0.0 0.0 0.00 0.00 0.00 67 1002.8
20260506122612 -17 0 0.0 0.0 0.00 0.00 0.00 67 1002.7
20260506121612 -17 0 0.0 0.0 0.00 0.00 0.00 67 1002.7
20260506120612 -17 0 0.0 0.0 0.00 0.00 0.00 70 1002.8
20260506115611 -17 0 0.0 0.0 0.00 0.00 0.00 66 1002.7
20260506114611 -17 0 0.0 0.0 0.00 0.00 0.00 66 1002.9
20260506112608 -17 0 0.0 0.0 0.00 0.00 0.00 65 1002.9
20260506111608 -17 0 0.0 0.0 0.00 0.00 0.00 64 1002.8
20260506110608 -17 0 0.0 0.0 0.00 0.00 0.00 63 1002.7
20260506105608 -17 0 0.0 0.0 0.00 0.00 0.00 64 1002.6
20260506104608 -17 0 0.0 0.0 0.00 0.00 0.00 65 1002.8
20260506102605 -17 0 0.0 0.0 0.00 0.00 0.00 68 1003.2
20260506101605 -17 0 0.0 0.0 0.00 0.00 0.00 66 1003.2
20260506100605 -17 0 0.0 0.0 0.00 0.00 0.00 68 1003.3
20260506095605 -17 0 0.0 0.0 0.00 0.00 0.00 70 1003.2
20260506094605 -17 0 0.0 0.0 0.00 0.00 0.00 68 1003.5
20260506092602 -17 0 0.0 0.0 0.00 0.00 0.00 70 1003.4
20260506091602 -17 0 0.0 0.0 0.00 0.00 0.00 68 1003.6
20260506090602 -17 0 0.0 0.0 0.00 0.00 0.00 68 1003.2
20260506085602 -17 0 0.0 0.0 0.00 0.00 0.00 72 1003.8
20260506084602 -17 0 0.0 0.0 0.00 0.00 0.00 76 1003.6
20260506083559 -17 0 0.0 0.0 0.00 0.00 0.00 71 1003.7
20260506082558 -17 0 0.0 0.0 0.00 0.00 0.00 70 1003.4
20260506081558 -17 0 0.0 0.0 0.00 0.00 0.00 73 1003.6
20260506080558 -17 0 0.0 0.0 0.00 0.00 0.00 73 1003.4
20260506072555 -17 0 0.0 0.0 0.00 0.00 0.00 68 1003.4
20260506071555 -17 0 0.0 0.0 0.00 0.00 0.00 67 1003.1
20260506070555 -17 0 0.0 0.0 0.00 0.00 0.00 69 1003.4
20260506061552 -17 0 0.0 0.0 0.00 0.00 0.00 63 1002.4
20260506060552 -17 0 0.0 0.0 0.00 0.00 0.00 65 1002.6
20260506050549 -17 0 0.0 0.0 0.00 0.00 0.00 81 1003.1
20260506044549 -17 0 0.0 0.0 0.00 0.00 0.00 94 1003.7
20260506042545 -17 0 0.0 0.0 0.00 0.00 0.00 99 1004.9
20260506041545 -17 0 0.0 0.0 0.00 0.00 0.00 99 1004.9
20260506040545 -17 0 0.0 0.0 0.00 0.00 0.00 99 1004.8
20260506035545 -17 0 0.0 0.0 0.00 0.00 0.00 99 1004.6
20260506034545 -17 0 0.0 0.0 0.00 0.00 0.00 99 1004.6
20260506032542 -17 0 0.0 0.0 0.00 0.00 0.00 99 1004.4
20260506031542 -17 0 0.0 0.0 0.00 0.00 0.00 99 1004.4
20260506030542 -17 0 0.0 0.0 0.00 0.00 0.00 99 1004.5
20260506025542 -17 0 0.0 0.0 0.00 0.00 0.00 99 1004.7
20260506024542 -17 0 0.0 0.0 0.00 0.00 0.00 99 1004.6
20260506023539 -17 0 0.0 0.0 0.00 0.00 0.00 99 1004.5
20260506022541 -17 0 0.0 0.0 0.00 0.00 0.00 99 1004.4
20260506021540 -17 0 0.0 0.0 0.00 0.00 0.00 99 1004.5
20260506020540 -17 0 0.0 0.0 0.00 0.00 0.00 99 1004.2
20260506015539 -17 0 0.0 0.0 0.00 0.00 0.00 99 1004.1
20260506013536 -17 0 0.0 0.0 0.00 0.00 0.00 99 1004.3
20260506012536 -17 0 0.0 0.0 0.00 0.00 0.00 99 1004.1
20260506011536 -17 0 0.0 0.0 0.00 0.00 0.00 99 1004.1
20260506010536 -17 0 0.0 0.0 0.00 0.00 0.00 99 1004.1
20260506005536 -17 0 0.0 0.0 0.00 0.00 0.00 99 1003.9
20260506004536 -17 0 0.0 0.0 0.00 0.00 0.00 99 1004.2
20260506002532 -17 0 0.0 0.0 0.00 0.00 0.00 99 1004.1
20260506001532 -17 0 0.0 0.0 0.00 0.00 0.00 99 1003.9
20260506000532 -17 0 0.0 0.0 0.00 0.00 0.00 99 1003.9
20260505235532 -17 0 0.0 0.0 0.00 0.00 0.00 98 1004.0
20260505234532 -17 0 0.0 0.0 0.00 0.00 0.00 91 1004.0
20260505232529 -17 0 0.0 0.0 0.00 0.00 0.00 88 1003.8
20260505231529 -17 0 0.0 0.0 0.00 0.00 0.00 88 1003.7
20260505230529 -17 0 0.0 0.0 0.00 0.00 0.00 88 1003.6
20260505225529 -17 0 0.0 0.0 0.00 0.00 0.00 88 1003.5
20260505224529 -17 0 0.0 0.0 0.00 0.00 0.00 88 1003.2
20260505222526 -17 0 0.0 0.0 0.00 0.00 0.00 87 1002.8
20260505221526 -17 0 0.0 0.0 0.00 0.00 0.00 87 1002.5
20260505220526 -17 0 0.0 0.0 0.00 0.00 0.00 86 1002.2
20260505215526 -17 0 0.0 0.0 0.00 0.00 0.00 85 1002.1
20260505214526 -17 0 0.0 0.0 0.00 0.00 0.00 85 1002.2
20260505212523 -17 0 0.0 0.0 0.00 0.00 0.00 84 1002.1
20260505211522 -17 0 0.0 0.0 0.00 0.00 0.00 84 1002.4
20260505210522 -17 0 0.0 0.0 0.00 0.00 0.00 83 1002.1
20260505205522 -17 0 0.0 0.0 0.00 0.00 0.00 83 1002.3
20260505204522 -17 0 0.0 0.0 0.00 0.00 0.00 83 1002.3
20260505203519 -17 0 0.0 0.0 0.00 0.00 0.00 82 1002.3
20260505202519 -17 0 0.0 0.0 0.00 0.00 0.00 81 1002.4
20260505201519 -17 0 0.0 0.0 0.00 0.00 0.00 80 1002.3
20260505200519 -17 0 0.0 0.0 0.00 0.00 0.00 79 1002.2
20260505195519 -17 0 0.0 0.0 0.00 0.00 0.00 78 1002.4
20260505194519 -17 0 0.0 0.0 0.00 0.00 0.00 77 1002.4
20260505192516 -17 0 0.0 0.0 0.00 0.00 0.00 75 1002.5
20260505191516 -17 0 0.0 0.0 0.00 0.00 0.00 74 1002.3
20260505190516 -17 0 0.0 0.0 0.00 0.00 0.00 72 1002.1
20260505185516 -17 0 0.0 0.0 0.00 0.00 0.00 71 1002.0
20260505184516 -17 0 0.0 0.0 0.00 0.00 0.00 69 1002.0
20260505182513 -17 0 0.0 0.0 0.00 0.00 0.00 65 1001.7
20260505181513 -17 0 0.0 0.0 0.00 0.00 0.00 65 1001.6
20260505180513 -17 0 0.0 0.0 0.00 0.00 0.00 62 1001.6
20260505175513 -17 0 0.0 0.0 0.00 0.00 0.00 61 1001.5
20260505174513 -17 0 0.0 0.0 0.00 0.00 0.00 62 1001.6
20260505172510 -17 0 0.0 0.0 0.00 0.00 0.00 61 1001.7
20260505171509 -17 0 0.0 0.0 0.00 0.00 0.00 61 1001.5
20260505170509 -17 0 0.0 0.0 0.00 0.00 0.00 61 1001.6